Waarnemingen

Advertentie
Mijn weer
Charleville, Frankrijk (7075): temperatuur & dauwpunt: 18.02.2018 22:00:00 - 24.02.2018 22:00:00 (CET)Charleville, Frankrijk (7075): temperatuur 5cm: 18.02.2018 22:00:00 - 24.02.2018 22:00:00 (CET)Charleville, Frankrijk (7075): temperatuur -20cm & temperatuur -100cm: 18.02.2018 22:00:00 - 24.02.2018 22:00:00 (CET)Charleville, Frankrijk (7075): windsnelheid & windstoten: 18.02.2018 22:00:00 - 24.02.2018 22:00:00 (CET)Charleville, Frankrijk (7075): windrichting: 18.02.2018 22:00:00 - 24.02.2018 22:00:00 (CET)Charleville, Frankrijk (7075): luchtdruk: 18.02.2018 22:00:00 - 24.02.2018 22:00:00 (CET)Charleville, Frankrijk (7075): zicht: 18.02.2018 22:00:00 - 24.02.2018 22:00:00 (CET)Charleville, Frankrijk (7075): Zonneschijnduur: 18.02.2018 22:00:00 - 24.02.2018 22:00:00 (CET)Charleville, Frankrijk (7075): neerslag: 18.02.2018 22:00:00 - 24.02.2018 22:00:00 (CET)
Datum & Tijd tt [°C] td [°C] tt 5cm [°C] tt -20cm [°C] tt -100cm [°C] ff [km/u] ff [kn] fx [km/u] fx [kn] dd ppp [hPa] vv [km] sd [min] rr [mm]
24.02.2018 22:00:00 -0,4 -9,8 -1,4 2,3 6,4 23 13 53 29 O 1022,1 20 0 0,0
24.02.2018 21:00:00 1,0 -8,3 -0,2 2,3 6,4 29 15 46 25 ONO 1021,3 20 0 0,0
24.02.2018 20:00:00 2,2 -8,2 0,4 2,3 6,4 18 10 42 23 ONO 1020,5 20 0 0,0
24.02.2018 19:00:00 3,2 -8,8 1,6 2,3 6,5 22 12 43 23 ONO 1019,8 20 0 0,0
24.02.2018 18:00:00 4,5 -9,7 3,2 2,3 6,4 26 14 52 28 O 1019,0 20 48 0,0
24.02.2018 17:00:00 5,8 -9,7 5,9 2,3 6,5 27 15 46 25 O 1018,6 20 60 0,0
24.02.2018 16:00:00 6,2 -9,7 8,1 2,3 6,5 23 13 56 31 O 1018,4 20 60 0,0
24.02.2018 15:00:00 6,2 -10,1 8,8 2,2 6,4 32 18 53 29 ONO 1018,3 20 60 0,0
24.02.2018 14:00:00 5,9 -10,8 8,9 2,3 6,4 33 18 59 32 ONO 1018,2 20 60 0,0
24.02.2018 13:00:00 5,7 -11,0 9,1 2,3 6,4 32 17 58 31 O 1018,3 20 60 0,0
24.02.2018 12:00:00 4,3 -11,4 7,0 2,3 6,5 28 15 49 27 O 1018,5 20 60 0,0
24.02.2018 11:00:00 2,5 -9,1 4,4 2,3 6,5 24 13 48 26 O 1018,9 20 60 0,0
24.02.2018 10:00:00 0,2 -9,5 0,7 2,4 6,5 20 11 33 18 ONO 1018,9 18 60 0,0
24.02.2018 09:00:00 -1,7 -8,7 -3,4 2,4 6,5 15 8 30 16 O 1019,0 14 60 0,0
24.02.2018 08:00:00 -2,9 -8,8 -5,3 2,4 6,5 16 8 27 15 ONO 1019,1 14 1 0,0
24.02.2018 07:00:00 -3,1 -8,8 -5,5 2,4 6,5 11 6 21 11 ONO 1018,8 14 0 0,0
24.02.2018 06:00:00 -3,0 -9,1 -6,2 2,4 6,5 8 4 18 10 NNO 1018,3 15 0 0,0
24.02.2018 05:00:00 -2,1 -9,3 -4,2 2,5 6,5 11 6 29 15 NO 1017,9 16 0 0,0
24.02.2018 04:00:00 -1,7 -9,3 -3,5 2,5 6,5 14 7 30 16 ONO 1017,7 17 0 0,0
24.02.2018 03:00:00 -1,7 -9,6 -3,7 2,5 6,5 16 9 26 14 ONO 1018,1 19 0 0,0
24.02.2018 02:00:00 -2,0 -9,8 -3,5 2,5 6,5 15 8 26 14 ONO 1018,0 20 0 0,0
24.02.2018 01:00:00 -1,8 -9,9 -4,7 2,6 6,5 15 8 25 14 ONO 1017,8 20 0 0,0
24.02.2018 00:00:00 -1,9 -10,2 -4,0 2,6 6,5 13 7 28 15 O 1018,0 20 0 0,0
23.02.2018 23:00:00 -0,7 -10,1 -3,7 2,6 6,5 18 10 29 15 ONO 1017,9 20 0 0,0
23.02.2018 22:00:00 -0,4 -10,4 -2,0 2,6 6,5 14 8 34 18 ONO 1017,7 20 0 0,0
23.02.2018 21:00:00 0,2 -10,1 -2,5 2,6 6,5 15 8 28 15 ONO 1018,0 20 0 0,0
23.02.2018 20:00:00 0,1 -10,2 -3,8 2,6 6,5 13 7 22 12 ONO 1017,9 20 0 0,0
23.02.2018 19:00:00 -0,6 -10,5 -3,4 2,6 6,5 10 5 35 19 O 1017,4 20 0 0,0
23.02.2018 18:00:00 1,5 -9,7 -0,5 2,6 6,5 10 5 37 20 O 1017,0 20 47 0,0
23.02.2018 17:00:00 4,1 -9,3 4,3 2,5 6,5 16 9 35 19 ONO 1016,4 20 60 0,0
23.02.2018 16:00:00 4,8 -8,3 7,1 2,5 6,5 20 11 39 21 ONO 1016,4 20 60 0,0
23.02.2018 15:00:00 4,4 -8,4 7,8 2,5 6,5 20 11 40 22 ONO 1016,7 20 60 0,0
23.02.2018 14:00:00 3,9 -7,9 7,7 2,5 6,5 20 11 36 20 ONO 1017,4 20 60 0,0
23.02.2018 13:00:00 3,3 -8,1 6,8 2,6 6,5 22 12 42 23 ONO 1017,9 20 60 0,0
23.02.2018 12:00:00 1,8 -8,9 5,9 2,6 6,5 22 12 38 20 ONO 1018,5 20 60 0,0
23.02.2018 11:00:00 0,8 -8,7 3,6 2,6 6,6 21 11 34 18 ONO 1018,9 20 60 0,0
23.02.2018 10:00:00 -0,6 -8,8 -0,2 2,7 6,6 13 7 32 18 ONO 1019,1 20 60 0,0
23.02.2018 09:00:00 -2,1 -9,0 -4,2 2,7 6,6 18 10 29 16 NO 1019,4 20 60 0,0
23.02.2018 08:00:00 -3,2 -9,1 -4,6 2,7 6,5 11 6 29 16 NO 1019,6 20 0 0,0
23.02.2018 07:00:00 -3,1 -8,8 -4,2 2,8 6,6 19 10 34 18 NO 1019,2 20 0 0,0
23.02.2018 06:00:00 -3,0 -8,9 -4,4 2,8 6,6 11 6 30 16 NO 1019,2 20 0 0,0
23.02.2018 05:00:00 -2,7 -8,6 -4,1 2,8 6,5 11 6 30 16 NO 1019,0 20 0 0,0
23.02.2018 04:00:00 -2,1 -8,6 -5,8 2,9 6,6 15 8 26 14 NO 1018,9 20 0 0,0
23.02.2018 03:00:00 -2,3 -9,0 -6,5 2,9 6,6 6 3 20 11 NO 1019,2 20 0 0,0
23.02.2018 02:00:00 -2,3 -8,8 -5,4 3,0 6,6 7 4 23 12 ONO 1019,7 20 0 0,0
23.02.2018 01:00:00 -1,5 -8,3 -3,3 3,0 6,6 13 7 30 16 O 1019,7 20 0 0,0
23.02.2018 00:00:00 -0,8 -8,0 -2,4 3,0 6,6 18 10 35 19 ONO 1019,8 20 0 0,0
22.02.2018 23:00:00 -0,6 -7,2 -3,2 3,0 6,6 16 9 29 16 ONO 1020,1 20 0 0,0
22.02.2018 22:00:00 -0,5 -7,5 -5,6 3,1 6,6 10 5 21 12 ONO 1020,0 20 0 0,0
22.02.2018 21:00:00 -0,3 -7,8 -3,7 3,1 6,6 7 4 22 12 NO 1019,8 20 0 0,0
22.02.2018 20:00:00 1,0 -7,8 -1,5 3,1 6,6 13 7 28 15 ONO 1019,8 20 0 0,0
22.02.2018 19:00:00 1,3 -7,5 -0,6 3,1 6,6 13 7 32 18 NO 1019,3 20 0 0,0
22.02.2018 18:00:00 2,4 -7,0 1,1 3,0 6,6 18 10 36 19 NO 1018,8 20 46 0,0
22.02.2018 17:00:00 4,0 -6,3 3,9 2,9 6,6 22 12 40 21 NO 1018,5 20 60 0,0
22.02.2018 16:00:00 4,9 -7,6 7,0 2,9 6,6 24 13 48 26 ONO 1018,3 20 60 0,0
22.02.2018 15:00:00 5,3 -6,9 8,5 2,9 6,6 23 12 51 27 ONO 1018,6 20 60 0,0
22.02.2018 14:00:00 4,5 -8,0 8,5 2,9 6,6 32 17 51 28 ONO 1019,5 20 60 0,0
22.02.2018 13:00:00 4,4 -6,8 8,1 3,0 6,6 31 17 52 28 O 1019,7 20 60 0,0
22.02.2018 12:00:00 3,7 -7,4 6,9 3,0 6,6 30 16 50 27 O 1020,4 20 60 0,0
22.02.2018 11:00:00 2,4 -6,7 3,5 3,1 6,6 22 12 38 20 ONO 1020,6 20 60 0,0
22.02.2018 10:00:00 0,2 -5,4 0,4 3,1 6,6 20 11 30 16 ONO 1020,9 17 60 0,0
22.02.2018 09:00:00 -1,3 -6,3 -5,6 3,2 6,6 13 7 21 11 NO 1021,1 13 57 0,0
22.02.2018 08:00:00 -3,0 -7,0 -6,5 3,2 6,6 6 3 21 12 NO 1021,3 10 0 0,0
22.02.2018 07:00:00 -3,0 -6,5 -9,1 3,3 6,6 12 7 19 10 NO 1021,0 9 0 0,0
22.02.2018 06:00:00 -4,2 -6,2 -9,4 3,3 6,6 1 1 10 6 NNO 1020,9 6 0 0,0
22.02.2018 05:00:00 -4,4 -6,5 -8,5 3,4 6,6 4 2 12 7 OZO 1020,8 6 0 0,0
22.02.2018 04:00:00 -3,2 -6,8 -7,5 3,5 6,6 6 4 22 12 O 1020,9 7 0 0,0
22.02.2018 03:00:00 -3,3 -5,9 -8,3 3,5 6,6 8 4 16 8 ONO 1021,4 6 0 0,0
22.02.2018 02:00:00 -3,6 -5,8 -7,6 3,6 6,6 2 1 6 4 W 1021,6 4,7 0 0,0
22.02.2018 01:00:00 -3,5 -6,5 -7,5 3,6 6,6 2 1 9 5 WZW 1022,0 6 0 0,0
22.02.2018 00:00:00 -2,2 -5,9 -5,9 3,7 6,6 3 1 14 7 NNW 1022,1 7 0 0,0
21.02.2018 23:00:00 0,2 -4,8 -3,6 3,7 6,6 10 5 26 14 NNW 1022,2 9 0 0,0
21.02.2018 22:00:00 0,6 -4,8 -3,2 3,7 6,6 6 4 26 14 NO 1022,5 10 0 0,0
21.02.2018 21:00:00 1,4 -4,5 -2,5 3,8 6,6 6 3 19 11 NNO 1022,3 9 0 0,0
21.02.2018 20:00:00 1,6 -4,1 -1,4 3,7 6,6 4 2 15 8 ZW 1022,3 7 0 0,0
21.02.2018 19:00:00 2,3 -3,4 -1,3 3,7 6,6 6 4 15 8 NW 1022,0 7 0 0,0
21.02.2018 18:00:00 2,6 -3,3 0,3 3,6 6,6 8 5 26 14 N 1021,8 7 43 0,0
21.02.2018 17:00:00 4,1 -2,8 4,1 3,6 6,6 20 11 31 17 N 1021,7 7 60 0,0
21.02.2018 16:00:00 5,1 -2,3 6,7 3,4 6,6 22 12 34 19 N 1021,5 8 60 0,0
21.02.2018 15:00:00 5,7 -1,9 8,6 3,4 6,6 20 11 32 17 N 1021,8 10 60 0,0
21.02.2018 14:00:00 5,8 -1,6 9,9 3,3 6,6 16 9 29 15 N 1022,4 11 60 0,0
21.02.2018 13:00:00 5,3 -2,8 9,5 3,3 6,6 15 8 23 13 N 1022,8 13 60 0,0
21.02.2018 12:00:00 3,8 -2,8 7,8 3,4 6,6 13 7 25 13 NO 1023,3 11 60 0,0
21.02.2018 11:00:00 2,6 -2,9 5,7 3,4 6,6 8 4 21 11 O 1023,8 9 60 0,0
21.02.2018 10:00:00 1,2 -3,5 2,4 3,5 6,6 8 4 22 12 O 1023,9 7 60 0,0
21.02.2018 09:00:00 -1,4 -3,4 -5,2 3,5 6,6 7 4 14 8 NW 1023,9 3,1 54 0,0
21.02.2018 08:00:00 -3,0 -5,2 -5,5 3,6 6,6 6 3 12 7 NNW 1023,5 3,1 0 0,0
21.02.2018 07:00:00 -2,4 -4,4 -5,3 3,7 6,6 4 2 12 7 NO 1023,2 3,7 0 0,0
21.02.2018 06:00:00 -1,7 -4,0 -4,7 3,8 6,7 6 3 14 8 NNO 1023,2 4,4 0 0,0
21.02.2018 05:00:00 -1,1 -3,6 -3,7 3,8 6,6 11 6 19 11 N 1022,7 4,5 0 0,0
21.02.2018 04:00:00 -1,4 -3,8 -4,9 3,9 6,6 8 5 15 8 NW 1022,5 4,7 0 0,0
21.02.2018 03:00:00 -1,7 -3,6 -4,1 3,9 6,6 9 5 14 7 NW 1022,2 4,3 0 0,0
21.02.2018 02:00:00 -0,8 -3,5 -4,1 4,0 6,7 3 2 17 9 N 1022,0 5 0 0,0
21.02.2018 01:00:00 -0,8 -3,0 -4,6 4,0 6,6 8 4 16 8 NNW 1021,8 4,8 0 0,0
21.02.2018 00:00:00 -1,0 -3,4 -4,2 4,1 6,7 4 2 9 5 NO 1021,2 4,2 0 0,0
20.02.2018 23:00:00 0,7 -2,2 -2,3 4,1 6,7 4 2 15 8 WZW 1020,5 5 0 0,0
20.02.2018 22:00:00 1,4 -2,6 -1,5 4,1 6,6 6 3 16 9 NW 1020,1 6 0 0,0
20.02.2018 21:00:00 1,7 -1,9 -0,4 4,1 6,7 9 5 20 11 NNO 1019,7 7 0 0,0
20.02.2018 20:00:00 2,7 -2,0 0,6 4,1 6,7 9 5 16 9 NNO 1019,2 10 0 0,0
20.02.2018 19:00:00 3,5 -2,3 1,5 4,0 6,6 5 3 11 6 N 1018,7 13 0 0,0
20.02.2018 18:00:00 4,1 -2,8 2,9 3,9 6,7 8 4 19 10 NO 1018,1 18 0 0,0
20.02.2018 17:00:00 5,2 -2,2 5,1 3,8 6,7 7 4 22 12 N 1017,3 13 0 0,0
20.02.2018 16:00:00 5,8 -2,3 6,8 3,7 6,7 14 8 21 11 N 1017,2 16 0 0,0
20.02.2018 15:00:00 5,1 -0,7 7,5 3,6 6,7 8 4 15 8 W 1017,4 12 0 0,0
20.02.2018 14:00:00 4,7 -0,9 8,7 3,5 6,7 8 5 15 8 W 1018,1 11 45 0,0
20.02.2018 13:00:00 4,2 -1,2 5,8 3,5 6,7 4 2 16 8 ZW 1018,1 8 1 0,0
20.02.2018 12:00:00 3,2 -1,4 5,2 3,5 6,7 7 4 13 7 ZO 1018,6 8 0 0,0
20.02.2018 11:00:00 3,0 -0,6 4,2 3,5 6,7 3 2 12 7 ZO 1018,8 9 40 0,0
20.02.2018 10:00:00 1,6 -0,3 0,1 3,5 6,7 3 2 12 6 Z 1018,5 8 33 0,0
20.02.2018 09:00:00 -0,1 -0,7 -1,1 3,5 6,7 5 3 10 5 W 1018,5 4,0 0 0,0
20.02.2018 08:00:00 -0,6 -1,0 -2,0 3,5 6,7 4 2 6 4 WNW 1017,8 3,2 0 0,0
20.02.2018 07:00:00 -0,8 -1,4 -2,0 3,6 6,7 4 2 7 4 WNW 1017,6 3,0 0 0,0
20.02.2018 06:00:00 -1,1 -1,5 -2,2 3,6 6,7 1 1 4 2 WZW 1017,7 2,0 0 0,0
20.02.2018 05:00:00 -1,5 -2,1 -4,6 3,6 6,7 1 0 3 1 OZO 1017,8 0,3 0 0,0
20.02.2018 04:00:00 -1,0 -1,6 -3,9 3,6 6,7 3 2 4 2 WNW 1017,5 1,9 0 0,0
20.02.2018 03:00:00 -0,3 -1,0 -1,7 3,6 6,7 3 2 5 3 NO 1017,3 3,3 0 0,0
20.02.2018 02:00:00 0,3 -0,4 -0,3 3,7 6,7 1 1 5 3 ZZO 1017,1 4,8 0 0,0
20.02.2018 01:00:00 0,7 0,0 0,0 3,7 6,7 1 1 5 3 ZW 1017,5 3,6 0 0,0
20.02.2018 00:00:00 0,8 -0,1 0,5 3,7 6,7 3 2 5 3 OZO 1017,5 4,6 0 0,0
19.02.2018 23:00:00 0,8 0,1 0,5 3,6 6,7 2 1 7 4 NO 1017,5 4,1 0 0,0
19.02.2018 22:00:00 0,8 0,1 0,4 3,6 6,7 5 3 8 5 OZO 1017,9 3,9 0 0,0
19.02.2018 21:00:00 0,7 -0,3 0,3 3,6 6,7 7 4 10 5 OZO 1018,3 3,5 0 0,0
19.02.2018 20:00:00 1,5 -0,3 1,1 3,6 6,7 8 5 14 7 OZO 1018,3 7 0 0,0
19.02.2018 19:00:00 2,1 -0,7 1,8 3,5 6,7 9 5 13 7 OZO 1018,4 11 0 0,0
19.02.2018 18:00:00 2,6 -1,2 2,5 3,5 6,7 5 3 7 4 ZZO 1018,4 16 0 0,0
19.02.2018 17:00:00 2,8 -1,2 3,7 3,4 6,7 2 1 7 4 OZO 1018,5 17 0 0,0
19.02.2018 16:00:00 2,9 -1,3 4,2 3,3 6,7 4 2 8 5 ZZW 1018,9 16 0 0,0
19.02.2018 15:00:00 2,6 -1,2 4,4 3,2 6,7 4 2 10 5 ZZO 1019,4 14 0 0,0
19.02.2018 14:00:00 1,9 -1,4 4,1 3,2 6,7 6 3 14 8 ZO 1020,0 12 0 0,0
19.02.2018 13:00:00 1,5 -1,4 3,2 3,2 6,7 8 4 13 7 ZO 1020,5 11 0 0,0
19.02.2018 12:00:00 0,7 -1,9 2,4 3,2 6,7 6 4 14 8 ZO 1021,1 11 0 0,0
19.02.2018 11:00:00 0,0 -2,2 1,1 3,2 6,7 8 4 16 9 ZZO 1021,2 9 0 0,0
19.02.2018 10:00:00 -0,5 -2,6 -0,5 3,3 6,7 9 5 16 9 ZZO 1021,7 9 0 0,0
19.02.2018 09:00:00 -0,9 -2,8 -0,8 3,3 6,7 9 5 15 8 ZZO 1022,1 8 0 0,0
19.02.2018 08:00:00 -0,9 -2,8 -0,9 3,4 6,7 9 5 18 10 Z 1022,4 8 0 0,0
19.02.2018 07:00:00 -0,9 -2,6 -1,0 3,4 6,7 9 5 18 10 ZZO 1022,3 8 0 0,0
19.02.2018 06:00:00 -0,9 -2,6 -1,0 3,4 6,7 9 5 21 11 ZZO 1022,3 8 0 0,0
19.02.2018 05:00:00 -0,8 -2,5 -1,0 3,5 6,7 12 6 19 10 OZO 1022,7 7 0 0,0
19.02.2018 04:00:00 -0,7 -2,8 -1,2 3,6 6,7 9 5 22 12 ZZO 1023,0 9 0 0,0
19.02.2018 03:00:00 -0,7 -2,1 -2,4 3,6 6,7 11 6 27 14 OZO 1023,3 7 0 0,0
19.02.2018 02:00:00 -2,9 -3,4 -7,6 3,7 6,7 3 2 4 2 ONO 1023,8 2,4 0 0,0
19.02.2018 01:00:00 -3,6 -4,3 -8,2 3,7 6,7 2 1 8 5 W 1024,5 1,4 0 0,0
19.02.2018 00:00:00 -3,2 -3,9 -7,7 3,8 6,7 2 1 8 4 OZO 1024,7 1,4 0 0,0
18.02.2018 23:00:00 -2,4 -3,4 -6,2 3,8 6,7 3 2 14 8 ZZO 1025,0 2,1 0 0,0
18.02.2018 22:00:00 -1,2 -2,3 -5,0 3,9 6,7 11 6 14 8 OZO 1025,4 3,2 0 0,0

tt = temperatuur
td = dauwpunt
tt 5cm = temperatuur 5cm
tt -20cm = temperatuur -20cm
tt -100cm = temperatuur -100cm
ff = windsnelheid
fx = windstoten
dd = windrichting
ppp = luchtdruk
vv = zicht
sd = Zonneschijnduur
rr = neerslag

Weerstations in de omgeving